• Processing (Info)

  • MPEC 2010-V81 : 2010 VA40

    The following Minor Planet Electronic Circular may be linked-to from your own Web pages, but must not otherwise be redistributed electronically.

    A form allowing access to any MPEC is at the bottom of this page.


    Read MPEC 2010-V80 Read MPEC 2010-V82


    M.P.E.C. 2010-V81                                Issued 2010 Nov. 8, 12:46 UT
    
         The Minor Planet Electronic Circulars contain information on unusual
             minor planets and routine data on comets.  They are published
       on behalf of Commission 20 of the International Astronomical Union by the
              Minor Planet Center, Smithsonian Astrophysical Observatory,
                              Cambridge, MA 02138, U.S.A.
    
                 Prepared using the Tamkin Foundation Computer Network
    
                                  MPC@CFA.HARVARD.EDU
           URL https://www.minorplanetcenter.org/iau/mpc.html  ISSN 1523-6714
    
                                       2010 VA40
    
    Observations:
         K10V40A* C2010 11 06.30696 03 18 16.45 +11 24 55.8          20.2 V EV081G96
         K10V40A  C2010 11 06.31339 03 18 23.47 +11 25 09.1          20.3 V EV081G96
         K10V40A  C2010 11 06.31977 03 18 30.38 +11 25 22.0          20.3 V EV081G96
         K10V40A  C2010 11 06.32616 03 18 37.33 +11 25 34.7          20.1 V EV081G96
         K10V40A  C2010 11 07.37373 03 37 50.59 +11 57 07.9          20.2 V EV081G96
         K10V40A  C2010 11 07.37633 03 37 53.18 +11 57 11.7          20.3 V EV081G96
         K10V40A  C2010 11 07.37892 03 37 55.70 +11 57 16.1          20.0 V EV081G96
         K10V40A  C2010 11 07.38152 03 37 58.29 +11 57 19.9          20.0 V EV081G96
         K10V40A  C2010 11 07.48067 03 39 36.18 +11 59 37.3          19.8 R EV081H01
         K10V40A  C2010 11 07.48856 03 39 44.10 +11 59 48.1          19.9 R EV081H01
         K10V40A  C2010 11 07.50546 03 40 01.12 +12 00 11.0          19.6 R EV081H01
         K10V40A  C2010 11 08.24835 03 52 38.20 +12 17 55.0          20.5 R EV081H01
         K10V40A  C2010 11 08.25683 03 52 45.87 +12 18 06.5          20.4 R EV081H01
         K10V40A  C2010 11 08.26793 03 52 55.88 +12 18 21.8          20.5 R EV081H01
         K10V40A  C2010 11 08.28595 03 53 12.05 +12 18 45.9          20.3 R EV081H01
         K10V40A KC2010 11 08.34053903 53 57.68 +12 19 37.4          21.0 V EV081H21
         K10V40A KC2010 11 08.34345903 54 00.24 +12 19 41.4          20.7 V EV081H21
         K10V40A KC2010 11 08.34699903 54 03.49 +12 19 45.8          21.0 V EV081H21
    
    Observer details:
    G96 Mt. Lemmon Survey.  Observer S. M. Larson.  Measurers J. D. Ahern,
        E. C. Beshore, A. Boattini, G. J. Garradd, A. R. Gibbs, A. D. Grauer,
        R. E. Hill, R. A. Kowalski, S. M. Larson, R. H. McNaught.  1.5-m reflector
        + CCD.
    H01 Magdalena Ridge Observatory, Socorro.  Observers W. H. Ryan, E. V. Ryan.
        Measurer W. H. Ryan.  2.4-m f/8.9 reflector + CCD.
    H21 Astronomical Research Observatory, Westfield.  Observer R. Holmes.
        Measurers S. Foglia, T. Vorobjov.  0.61-m f/4.0 astrograph + CCD.
    
    Orbital elements:
    2010 VA40                                                Earth MOID = 0.0363 AU
    Epoch 2010 July 23.0 TT = JDT 2455400.5                 MPC
    M 333.97150              (2000.0)            P               Q
    n   0.26519868     Peri.  178.35391     +0.82633563     -0.56280433
    a   2.3993217      Node   215.92091     +0.51630537     +0.77160504
    e   0.5710294      Incl.    2.00361     +0.22494042     +0.29644048
    P   3.72           H   26.3           G   0.15           U   7
    Residuals in seconds of arc
    101106 G96  0.4-  0.1+    101107 G96  0.1+  0.3+    101108 H01  0.2-  0.3-
    101106 G96  0.1+  0.2+    101107 G96  0.5+  0.1+    101108 H01  0.1-  0.1-
    101106 G96  0.0   0.1+    101107 H01  0.2-  0.1-    101108 H01  0.1-  0.1-
    101106 G96  0.3+  0.2-    101107 H01  0.3-  0.1-    101108 H21  0.5+  0.2-
    101107 G96  0.0   0.1+    101107 H01  0.5-  0.3-    101108 H21  0.4-  0.4+
    101107 G96  0.5+  0.1-    101108 H01  0.3-  0.2-    101108 H21  0.6+  0.6+
    
    Ephemeris:
    2010 VA40                a,e,i = 2.40, 0.57, 2                   q = 1.0292
    Date    TT    R. A. (2000) Decl.     Delta      r     Elong.  Phase     V
    2010 10 31    00 55.87   +05 26.1    0.0394   1.030   157.6    21.5    20.4
    2010 11 01    01 19.18   +06 37.8    0.0390   1.030   162.4    16.9    20.2
    2010 11 02    01 42.94   +07 46.6    0.0389   1.030   167.1    12.4    20.1
    2010 11 03    02 06.62   +08 50.2    0.0394   1.031   171.4     8.3    19.9
    2010 11 04    02 29.67   +09 46.6    0.0402   1.032   174.4     5.4    19.8
    2010 11 05    02 51.66   +10 35.1    0.0415   1.033   174.2     5.5    19.9
    2010 11 06    03 12.24   +11 15.3    0.0431   1.034   171.6     8.0    20.1
    2010 11 07    03 31.22   +11 47.9    0.0451   1.035   168.5    11.0    20.3
    2010 11 08    03 48.51   +12 13.6    0.0474   1.037   165.6    13.8    20.5
    2010 11 09    04 04.13   +12 33.6    0.0500   1.039   162.9    16.3    20.8
    2010 11 10    04 18.15   +12 49.0    0.0527   1.040   160.5    18.5    20.9
    2010 11 11    04 30.70   +13 00.6    0.0557   1.042   158.5    20.3    21.1
    2010 11 12    04 41.90   +13 09.4    0.0588   1.044   156.9    21.9    21.3
    2010 11 13    04 51.89   +13 15.9    0.0621   1.047   155.4    23.1    21.5
    2010 11 14    05 00.80   +13 20.8    0.0655   1.049   154.3    24.2    21.6
    2010 11 15    05 08.76   +13 24.5    0.0691   1.051   153.4    24.9    21.8
    2010 11 16    05 15.88   +13 27.3    0.0727   1.054   152.6    25.5    21.9
    2010 11 17    05 22.24   +13 29.5    0.0764   1.057   152.1    26.0    22.0
    2010 11 18    05 27.94   +13 31.2    0.0802   1.060   151.7    26.2    22.1
    2010 11 19    05 33.06   +13 32.6    0.0840   1.063   151.5    26.4    22.2
    2010 11 20    05 37.65   +13 33.9    0.0879   1.066   151.3    26.4    22.4
    
    Timothy B. Spahr             (C) Copyright 2010 MPC           M.P.E.C. 2010-V81
    

    Read MPEC 2010-V80 Read MPEC 2010-V82


    MPEC number:

    Enter an MPEC number in one of the following forms:

    • 1997-B01 (the full form)
    • J97B01 (the packed version of the full form)
    • B01 (the abbreviated form)